User: anonymous   Login
Location: Unspecified
(0.0000°N, 0.0000°E)
Time: 18:53:34
(UTC+00:00)
Language:

Orbcomm A7 (FM11) - Orbit

View from above orbital plane
View from above orbital plane
View from above satellite
View from above satellite

Ground track
Ground track

The orbit data is extracted from the following two-line orbital elements,

1 25114U 97084C   19077.88243617 +.00000081 +00000-0 +71955-4 0  9994
2 25114 045.0163 072.1204 0008824 260.5803 099.4048 14.38842146112409
Epoch (UTC): 18 March 2019 21:10:42
Eccentricity: 0.0008824
inclination: 45.0163°
perigee height: 756 km
apogee height: 768 km
right ascension of ascending node: 72.1204°
argument of perigee: 260.5803°
revolutions per day: 14.38842146
mean anomaly at epoch: 99.4048°
orbit number at epoch: 11240

The dashed part of the orbit path shows where the satellite is in the earth's shadow,  

DLR